WUK7MH EGGW-OMDB

Flight info

Callsign WUK7MH
Flight time N/A
Altitude 29000
Route MATCH Q295 BRAIN P44 DAGGA M85 ITVIP L10 DVR UL9 KONAN UL607 REMBA M624 DIK M150 PITES DCT BABEG DCT KUMOM DCT PINDO/N0461F310 DCT PAXIS L607 NABSI P557 OBRAN L321 REXUM M872 BOPOB/N0465F330 M872 WEJ L604 GAS L308 DAROR P559 VUTEB
Aircraft A21N/M-SDE2E3FGHIRWXY/LB1

Departure

Time 2026-05-05 16:06
Airport London Luton Airport (EGGW)

Arrival

Time N/A
Airport Dubai International Airport (OMDB)
Time Latitude Longitude Altitude Speed Heading
2026-05-05 15:39 51.88021 -0.37832 529 ft 0 kts 128°
2026-05-05 15:58 51.88022 -0.37832 529 ft 1 kts 129°
2026-05-05 15:58 51.88028 -0.37845 529 ft 2 kts 148°
2026-05-05 15:58 51.88051 -0.37861 529 ft 4 kts 173°
2026-05-05 15:59 51.88073 -0.37862 529 ft 1 kts 184°
2026-05-05 15:59 51.88078 -0.37862 529 ft 0 kts 184°
2026-05-05 16:01 51.88075 -0.37863 529 ft 2 kts 198°
2026-05-05 16:01 51.88057 -0.37885 529 ft 5 kts 217°
2026-05-05 16:01 51.88017 -0.37935 529 ft 10 kts 218°
2026-05-05 16:01 51.87952 -0.38000 529 ft 12 kts 195°
2026-05-05 16:02 51.87867 -0.38004 529 ft 13 kts 161°
2026-05-05 16:02 51.87798 -0.37905 529 ft 14 kts 121°
2026-05-05 16:02 51.87755 -0.37759 529 ft 15 kts 114°
2026-05-05 16:02 51.87712 -0.37608 524 ft 15 kts 116°
2026-05-05 16:03 51.87645 -0.37475 528 ft 16 kts 156°
2026-05-05 16:03 51.87535 -0.37474 527 ft 16 kts 206°
2026-05-05 16:03 51.87486 -0.37639 528 ft 17 kts 254°
2026-05-05 16:03 51.87453 -0.37827 528 ft 18 kts 254°
2026-05-05 16:04 51.87413 -0.38012 529 ft 17 kts 229°
2026-05-05 16:04 51.87311 -0.38108 528 ft 17 kts 190°
2026-05-05 16:04 51.87222 -0.38203 528 ft 16 kts 239°
2026-05-05 16:04 51.87212 -0.38278 527 ft 10 kts 43°
2026-05-05 16:05 51.87233 -0.38165 529 ft 11 kts 72°
2026-05-05 16:05 51.87281 -0.37898 530 ft 56 kts 74°
2026-05-05 16:05 51.87455 -0.36893 528 ft 128 kts 74°
2026-05-05 16:05 51.87752 -0.35219 768 ft 166 kts 71°
2026-05-05 16:06 51.88067 -0.33387 1493 ft 173 kts 73°
2026-05-05 16:06 51.88400 -0.31419 1716 ft 190 kts 72°
2026-05-05 16:06 51.88768 -0.29259 1993 ft 206 kts 72°
2026-05-05 16:06 51.89171 -0.26916 2224 ft 227 kts 73°
2026-05-05 16:07 51.89613 -0.24336 2495 ft 248 kts 75°
2026-05-05 16:07 51.89663 -0.21515 2936 ft 262 kts 103°
2026-05-05 16:07 51.88808 -0.18922 3634 ft 267 kts 133°
2026-05-05 16:07 51.87233 -0.17336 4330 ft 271 kts 163°
2026-05-05 16:08 51.85347 -0.17144 4961 ft 275 kts 185°
2026-05-05 16:08 51.83434 -0.17079 5548 ft 278 kts 162°
2026-05-05 16:08 51.81675 -0.15906 6245 ft 278 kts 153°
2026-05-05 16:08 51.79914 -0.14494 6897 ft 279 kts 153°
2026-05-05 16:09 51.78165 -0.13122 7520 ft 280 kts 152°
2026-05-05 16:09 51.76554 -0.11351 8005 ft 285 kts 133°
2026-05-05 16:09 51.75481 -0.08645 8410 ft 290 kts 107°
2026-05-05 16:09 51.75227 -0.05459 9011 ft 287 kts 84°
2026-05-05 16:10 51.75464 -0.02242 9541 ft 292 kts 86°
2026-05-05 16:10 51.75173 0.01019 9974 ft 299 kts 111°
2026-05-05 16:10 51.74139 0.03979 10257 ft 310 kts 125°
2026-05-05 16:10 51.72829 0.06834 10492 ft 323 kts 127°
2026-05-05 16:11 51.71466 0.09772 10692 ft 338 kts 126°
2026-05-05 16:11 51.67076 0.19579 11264 ft 380 kts 125°
2026-05-05 16:12 51.65523 0.23102 11441 ft 392 kts 125°
2026-05-05 16:12 51.62284 0.30436 11948 ft 407 kts 125°
2026-05-05 16:13 51.57372 0.41528 13326 ft 409 kts 125°
2026-05-05 16:13 51.55718 0.45254 13769 ft 411 kts 125°
2026-05-05 16:13 51.54053 0.49002 14124 ft 413 kts 125°
2026-05-05 16:14 51.50689 0.56552 14837 ft 417 kts 125°
2026-05-05 16:14 51.47281 0.64176 15713 ft 422 kts 125°
2026-05-05 16:15 51.43828 0.71879 16551 ft 426 kts 125°
2026-05-05 16:15 51.40357 0.79595 17379 ft 430 kts 126°
2026-05-05 16:16 51.36839 0.87394 18187 ft 434 kts 126°
2026-05-05 16:16 51.33285 0.95247 18815 ft 438 kts 126°
2026-05-05 16:17 51.29700 1.03144 19476 ft 440 kts 126°
2026-05-05 16:17 51.27947 1.07200 19709 ft 444 kts 123°
2026-05-05 16:18 51.24559 1.15539 20196 ft 451 kts 123°
2026-05-05 16:18 51.22872 1.19695 20517 ft 452 kts 124°
2026-05-05 16:18 51.19431 1.28139 21269 ft 455 kts 124°
2026-05-05 16:19 51.17753 1.32420 21643 ft 457 kts 120°
2026-05-05 16:19 51.16503 1.37095 21908 ft 461 kts 108°
2026-05-05 16:19 51.15643 1.47284 22477 ft 467 kts 95°
2026-05-05 16:20 51.15209 1.57652 23039 ft 471 kts 96°
2026-05-05 16:20 51.14791 1.66338 23424 ft 476 kts 96°
2026-05-05 16:21 51.14266 1.76861 24004 ft 475 kts 96°
2026-05-05 16:22 51.13463 1.92583 24962 ft 473 kts 96°
2026-05-05 16:22 51.12917 2.02896 25709 ft 468 kts 97°
2026-05-05 16:23 51.12371 2.13202 26346 ft 466 kts 97°
2026-05-05 16:23 51.12097 2.18336 26688 ft 465 kts 97°
2026-05-05 16:23 51.11539 2.28567 27324 ft 463 kts 97°
2026-05-05 16:24 51.11253 2.33694 27592 ft 463 kts 97°
2026-05-05 16:24 51.10967 2.38801 27894 ft 462 kts 97°
2026-05-05 16:24 51.10389 2.48962 28491 ft 460 kts 97°
2026-05-05 16:25 51.10099 2.54019 28792 ft 459 kts 97°
2026-05-05 16:25 51.09480 2.64113 29356 ft 456 kts 101°
2026-05-05 16:25 51.08789 2.69019 29623 ft 453 kts 108°
2026-05-05 16:26 51.07050 2.78548 30145 ft 450 kts 109°
2026-05-05 16:26 51.05299 2.88094 30542 ft 449 kts 109°
2026-05-05 16:27 51.04431 2.92871 30727 ft 449 kts 109°
2026-05-05 16:27 51.03564 2.97644 30898 ft 449 kts 109°
2026-05-05 16:27 51.01824 3.07159 30922 ft 448 kts 109°
2026-05-05 16:28 51.00073 3.16643 30888 ft 447 kts 109°
2026-05-05 16:28 50.98317 3.26109 30877 ft 447 kts 109°
2026-05-05 16:29 50.96553 3.35571 30862 ft 447 kts 109°
2026-05-05 16:29 50.94782 3.45019 30867 ft 447 kts 109°
2026-05-05 16:30 50.93015 3.54395 30862 ft 447 kts 109°
2026-05-05 16:30 50.91234 3.63821 30864 ft 446 kts 109°
2026-05-05 16:31 50.89423 3.73244 30866 ft 446 kts 109°
2026-05-05 16:31 50.87609 3.82614 30867 ft 447 kts 110°
2026-05-05 16:32 50.85782 3.92039 30864 ft 448 kts 110°
2026-05-05 16:32 50.83943 4.01466 30866 ft 448 kts 110°
2026-05-05 16:33 50.82093 4.10894 30859 ft 448 kts 110°
2026-05-05 16:33 50.80250 4.20258 30865 ft 449 kts 111°
2026-05-05 16:34 50.78382 4.29684 30868 ft 449 kts 111°
2026-05-05 16:34 50.76512 4.39095 30872 ft 448 kts 111°
2026-05-05 16:35 50.74627 4.48519 30869 ft 449 kts 111°
2026-05-05 16:35 50.72749 4.57877 30866 ft 448 kts 111°
2026-05-05 16:36 50.70894 4.67289 30862 ft 449 kts 111°
2026-05-05 16:36 50.69080 4.76708 30862 ft 449 kts 111°
2026-05-05 16:37 50.67239 4.86088 30849 ft 449 kts 113°
2026-05-05 16:37 50.64243 4.94503 30844 ft 437 kts 135°
2026-05-05 16:38 50.59958 5.01238 30846 ft 434 kts 140°
2026-05-05 16:38 50.55607 5.07860 30840 ft 434 kts 139°
2026-05-05 16:39 50.51292 5.14503 30841 ft 434 kts 139°
2026-05-05 16:39 50.46981 5.21138 30838 ft 434 kts 140°
2026-05-05 16:40 50.42684 5.27738 30839 ft 434 kts 140°
2026-05-05 16:40 50.38361 5.34354 30833 ft 433 kts 140°
2026-05-05 16:41 50.34063 5.40917 30828 ft 433 kts 140°
2026-05-05 16:41 50.29742 5.47497 30823 ft 433 kts 140°
2026-05-05 16:42 50.25418 5.54069 30815 ft 433 kts 140°
2026-05-05 16:42 50.21093 5.60616 30811 ft 433 kts 141°
2026-05-05 16:43 50.16763 5.67158 30812 ft 433 kts 141°
2026-05-05 16:43 50.12457 5.73648 30806 ft 433 kts 141°
2026-05-05 16:44 50.08123 5.80161 30805 ft 433 kts 141°
2026-05-05 16:44 50.03785 5.86653 30805 ft 433 kts 141°
2026-05-05 16:45 49.99462 5.93124 30800 ft 433 kts 141°
2026-05-05 16:45 49.95115 5.99613 30802 ft 433 kts 141°
2026-05-05 16:46 49.90767 6.06077 30799 ft 433 kts 141°
2026-05-05 16:46 49.86505 6.12702 30798 ft 438 kts 134°
2026-05-05 16:47 49.83342 6.20889 30813 ft 446 kts 122°
2026-05-05 16:47 49.80502 6.29458 30807 ft 447 kts 122°
2026-05-05 16:48 49.77621 6.37988 30808 ft 447 kts 123°
2026-05-05 16:48 49.74718 6.46481 30808 ft 447 kts 123°
2026-05-05 16:49 49.71883 6.54987 30800 ft 449 kts 121°
2026-05-05 16:49 49.69139 6.63658 30793 ft 449 kts 121°
2026-05-05 16:50 49.66388 6.72337 30781 ft 450 kts 121°
2026-05-05 16:50 49.63626 6.81007 30784 ft 450 kts 121°
2026-05-05 16:51 49.60856 6.89674 30791 ft 450 kts 121°
2026-05-05 16:51 49.58075 6.98340 30796 ft 451 kts 121°
2026-05-05 16:52 49.55285 7.07000 30803 ft 451 kts 121°
2026-05-05 16:52 49.52490 7.15658 30804 ft 452 kts 121°
2026-05-05 16:53 49.49697 7.24271 30803 ft 453 kts 121°
2026-05-05 16:53 49.46880 7.32940 30803 ft 453 kts 121°
2026-05-05 16:54 49.44050 7.41613 30799 ft 454 kts 121°
2026-05-05 16:54 49.41203 7.50305 30798 ft 455 kts 121°
2026-05-05 16:55 49.38346 7.59001 30796 ft 456 kts 121°
2026-05-05 16:55 49.35500 7.67636 30803 ft 457 kts 121°
2026-05-05 16:56 49.32614 7.76355 30798 ft 458 kts 121°
2026-05-05 16:56 49.29720 7.85073 30807 ft 459 kts 121°
2026-05-05 16:57 49.26828 7.93758 30808 ft 460 kts 121°
2026-05-05 16:57 49.23908 8.02494 30806 ft 460 kts 121°
2026-05-05 16:58 49.20979 8.11222 30806 ft 461 kts 121°
2026-05-05 16:58 49.18047 8.19938 30809 ft 461 kts 121°
2026-05-05 16:59 49.15096 8.28677 30805 ft 462 kts 122°
2026-05-05 16:59 49.12153 8.37346 30804 ft 462 kts 122°
2026-05-05 17:00 49.09207 8.46000 30806 ft 462 kts 122°
2026-05-05 17:00 49.06240 8.54712 30806 ft 463 kts 122°
2026-05-05 17:01 49.03252 8.63416 30816 ft 463 kts 122°
2026-05-05 17:01 49.00265 8.72114 30821 ft 463 kts 122°
2026-05-05 17:02 48.97287 8.80751 30811 ft 463 kts 122°
2026-05-05 17:02 48.94306 8.89379 30804 ft 463 kts 122°
2026-05-05 17:03 48.91291 8.98089 30811 ft 463 kts 122°
2026-05-05 17:03 48.88276 9.06742 30807 ft 463 kts 122°
2026-05-05 17:04 48.85320 9.15201 30813 ft 463 kts 122°
2026-05-05 17:04 48.82289 9.23854 30809 ft 463 kts 122°
2026-05-05 17:05 48.79273 9.32439 30816 ft 463 kts 122°
2026-05-05 17:05 48.76228 9.41065 30817 ft 463 kts 122°
2026-05-05 17:06 48.73179 9.49673 30815 ft 463 kts 122°
2026-05-05 17:06 48.70142 9.58229 30814 ft 463 kts 122°
2026-05-05 17:07 48.67076 9.66778 30809 ft 462 kts 123°
2026-05-05 17:07 48.63807 9.75139 30806 ft 462 kts 124°
2026-05-05 17:08 48.61054 9.82132 30811 ft 461 kts 124°
2026-05-05 17:08 48.57851 9.90251 30815 ft 462 kts 124°
2026-05-05 17:09 48.54557 9.98571 30817 ft 462 kts 124°
2026-05-05 17:09 48.51260 10.06891 30820 ft 462 kts 124°
2026-05-05 17:10 48.47950 10.15218 30822 ft 462 kts 124°
2026-05-05 17:10 48.44635 10.23531 30824 ft 462 kts 124°
2026-05-05 17:11 48.41883 10.30413 30822 ft 462 kts 124°
2026-05-05 17:11 48.38560 10.38700 30816 ft 462 kts 124°
2026-05-05 17:12 48.35251 10.46922 30817 ft 462 kts 124°
2026-05-05 17:12 48.31890 10.55238 30815 ft 462 kts 124°
2026-05-05 17:13 48.28548 10.63487 30817 ft 462 kts 124°
2026-05-05 17:13 48.25204 10.71712 30818 ft 462 kts 124°
2026-05-05 17:14 48.21878 10.79878 30812 ft 461 kts 124°
2026-05-05 17:14 48.18542 10.88038 30810 ft 461 kts 124°
2026-05-05 17:15 48.15184 10.96233 30815 ft 461 kts 124°
2026-05-05 17:15 48.11818 11.04420 30813 ft 461 kts 124°
2026-05-05 17:16 48.08451 11.12584 30815 ft 461 kts 124°
2026-05-05 17:16 48.05080 11.20721 30811 ft 460 kts 125°
2026-05-05 17:17 48.01724 11.28814 30815 ft 460 kts 125°
2026-05-05 17:17 47.98345 11.36929 30815 ft 460 kts 125°
2026-05-05 17:18 47.94958 11.45038 30813 ft 460 kts 125°
2026-05-05 17:18 47.91567 11.53134 30810 ft 460 kts 125°
2026-05-05 17:19 47.88169 11.61215 30802 ft 460 kts 125°
2026-05-05 17:19 47.84782 11.69239 30794 ft 460 kts 125°
2026-05-05 17:20 47.81377 11.77298 30790 ft 460 kts 125°
2026-05-05 17:20 47.77960 11.85367 30786 ft 460 kts 125°
2026-05-05 17:21 47.74541 11.93423 30781 ft 460 kts 125°
2026-05-05 17:22 47.69404 12.05469 30770 ft 460 kts 125°
2026-05-05 17:22 47.65990 12.13439 30768 ft 460 kts 125°
2026-05-05 17:23 47.62553 12.21442 30770 ft 460 kts 125°
2026-05-05 17:23 47.59101 12.29456 30772 ft 460 kts 126°
2026-05-05 17:24 47.55533 12.37327 30778 ft 457 kts 133°
2026-05-05 17:24 47.51075 12.44000 30789 ft 455 kts 139°
2026-05-05 17:25 47.46505 12.50479 30799 ft 455 kts 139°
2026-05-05 17:25 47.41970 12.56946 30791 ft 456 kts 139°
2026-05-05 17:26 47.37407 12.63455 30837 ft 456 kts 140°
2026-05-05 17:26 47.32834 12.69960 30801 ft 456 kts 140°
2026-05-05 17:27 47.28290 12.76408 30838 ft 456 kts 140°
2026-05-05 17:27 47.23717 12.82877 30848 ft 455 kts 140°
2026-05-05 17:28 47.19137 12.89344 30858 ft 456 kts 140°
2026-05-05 17:28 47.14564 12.95788 30866 ft 455 kts 141°
2026-05-05 17:29 47.10008 13.02182 30889 ft 456 kts 140°
2026-05-05 17:29 47.05415 13.08623 30903 ft 457 kts 140°
2026-05-05 17:30 47.00811 13.15053 30916 ft 457 kts 140°
2026-05-05 17:30 46.96208 13.21468 30938 ft 457 kts 140°
2026-05-05 17:31 46.91604 13.27876 30945 ft 457 kts 140°
2026-05-05 17:31 46.86998 13.34268 30949 ft 457 kts 140°
2026-05-05 17:32 46.82399 13.40625 30947 ft 458 kts 140°
2026-05-05 17:32 46.77771 13.47012 30939 ft 459 kts 140°
2026-05-05 17:33 46.73126 13.53411 30961 ft 460 kts 140°
2026-05-05 17:33 46.68468 13.59812 30960 ft 460 kts 140°
2026-05-05 17:34 46.63794 13.66213 30961 ft 460 kts 140°
2026-05-05 17:34 46.59117 13.72605 30972 ft 461 kts 140°
2026-05-05 17:35 46.54429 13.78992 30971 ft 462 kts 140°
2026-05-05 17:35 46.49771 13.85330 30972 ft 462 kts 140°
2026-05-05 17:36 46.45073 13.91704 30974 ft 462 kts 141°
2026-05-05 17:36 46.40366 13.98075 30978 ft 463 kts 141°
2026-05-05 17:37 46.35656 14.04431 30984 ft 463 kts 141°
2026-05-05 17:37 46.30966 14.10751 30991 ft 464 kts 141°
2026-05-05 17:38 46.26234 14.17107 30992 ft 465 kts 141°
2026-05-05 17:38 46.21481 14.23468 30986 ft 465 kts 141°
2026-05-05 17:39 46.16748 14.29800 30981 ft 466 kts 141°
2026-05-05 17:39 46.11998 14.36131 30994 ft 466 kts 141°
2026-05-05 17:40 46.07219 14.42487 30987 ft 467 kts 141°
2026-05-05 17:40 46.02432 14.48840 30991 ft 467 kts 141°
2026-05-05 17:41 45.97637 14.55184 30982 ft 467 kts 141°
2026-05-05 17:41 45.92873 14.61476 30986 ft 468 kts 141°
2026-05-05 17:42 45.88063 14.67810 30983 ft 469 kts 141°
2026-05-05 17:42 45.83248 14.74137 30986 ft 469 kts 141°
2026-05-05 17:43 45.78440 14.80440 30986 ft 469 kts 141°
2026-05-05 17:43 45.73691 14.86645 30986 ft 470 kts 141°
2026-05-05 17:44 45.68832 14.92981 30991 ft 471 kts 141°
2026-05-05 17:44 45.63981 14.99293 30991 ft 471 kts 141°
2026-05-05 17:45 45.59114 15.05608 30980 ft 472 kts 141°
2026-05-05 17:45 45.54246 15.11914 30985 ft 473 kts 141°
2026-05-05 17:46 45.49372 15.18207 30988 ft 473 kts 141°
2026-05-05 17:46 45.44513 15.24466 30976 ft 473 kts 141°
2026-05-05 17:47 45.39619 15.30757 30973 ft 474 kts 141°
2026-05-05 17:47 45.34717 15.37041 30970 ft 474 kts 141°
2026-05-05 17:48 45.29800 15.43327 30975 ft 474 kts 141°
2026-05-05 17:48 45.24915 15.49561 30981 ft 475 kts 141°
2026-05-05 17:49 45.19993 15.55828 30973 ft 475 kts 141°
2026-05-05 17:49 45.15061 15.62092 30979 ft 476 kts 141°
2026-05-05 17:50 45.10111 15.68358 30991 ft 476 kts 141°
2026-05-05 17:50 45.05167 15.74607 30998 ft 477 kts 141°
2026-05-05 17:51 45.00243 15.80812 30996 ft 477 kts 141°
2026-05-05 17:51 44.95281 15.87051 31000 ft 478 kts 141°
2026-05-05 17:52 44.90303 15.93293 31012 ft 478 kts 141°
2026-05-05 17:52 44.85305 15.99545 31011 ft 479 kts 141°
2026-05-05 17:53 44.80355 16.05726 31011 ft 479 kts 141°
2026-05-05 17:53 44.75359 16.11952 31012 ft 479 kts 141°
2026-05-05 17:54 44.70353 16.18171 31013 ft 479 kts 141°
2026-05-05 17:54 44.65372 16.24347 31016 ft 480 kts 141°
2026-05-05 17:55 44.60365 16.30546 31020 ft 480 kts 141°
2026-05-05 17:55 44.55339 16.36747 31017 ft 480 kts 142°
2026-05-05 17:56 44.51159 16.41887 31025 ft 481 kts 142°
2026-05-05 17:56 44.46122 16.48069 31031 ft 481 kts 142°
2026-05-05 17:57 44.41073 16.54255 31038 ft 481 kts 142°
2026-05-05 17:57 44.36032 16.60420 31046 ft 481 kts 142°
2026-05-05 17:58 44.31014 16.66531 31052 ft 482 kts 142°
2026-05-05 17:58 44.25953 16.72691 31049 ft 482 kts 142°
2026-05-05 17:59 44.20888 16.78841 31065 ft 483 kts 142°
2026-05-05 17:59 44.15814 16.84983 31073 ft 483 kts 142°
2026-05-05 18:00 44.10761 16.91087 31072 ft 483 kts 142°
2026-05-05 18:00 44.05674 16.97218 31076 ft 484 kts 142°
2026-05-05 18:01 44.00580 17.03342 31066 ft 484 kts 142°
2026-05-05 18:01 43.95472 17.09465 31078 ft 485 kts 142°
2026-05-05 18:02 43.90360 17.15580 31086 ft 485 kts 142°
2026-05-05 18:02 43.85242 17.21692 31088 ft 486 kts 142°
2026-05-05 18:03 43.80112 17.27802 31073 ft 486 kts 142°
2026-05-05 18:03 43.75016 17.33858 31081 ft 486 kts 142°
2026-05-05 18:04 43.69879 17.39946 31081 ft 486 kts 142°
2026-05-05 18:04 43.64733 17.46031 31085 ft 487 kts 142°
2026-05-05 18:05 43.59585 17.52109 31082 ft 487 kts 142°
2026-05-05 18:05 43.54426 17.58178 31080 ft 487 kts 142°
2026-05-05 18:06 43.49267 17.64236 31078 ft 487 kts 142°
2026-05-05 18:06 43.44130 17.70255 31083 ft 488 kts 142°
2026-05-05 18:07 43.38953 17.76304 31083 ft 488 kts 142°
2026-05-05 18:07 43.33774 17.82347 31079 ft 488 kts 142°
2026-05-05 18:08 43.28607 17.88353 31080 ft 488 kts 142°
2026-05-05 18:08 43.23414 17.94373 31082 ft 489 kts 142°
2026-05-05 18:09 43.18214 18.00394 31082 ft 489 kts 142°
2026-05-05 18:09 43.13011 18.06408 31084 ft 490 kts 142°
2026-05-05 18:10 43.07794 18.12423 31088 ft 490 kts 142°
2026-05-05 18:10 43.02571 18.18425 31085 ft 490 kts 142°
2026-05-05 18:11 42.97348 18.24420 31092 ft 490 kts 142°
2026-05-05 18:11 42.92151 18.30368 31097 ft 490 kts 142°
2026-05-05 18:12 42.86918 18.36346 31091 ft 491 kts 142°
2026-05-05 18:12 42.81670 18.42331 31089 ft 491 kts 142°
2026-05-05 18:13 42.76413 18.48306 31089 ft 491 kts 142°
2026-05-05 18:13 42.71165 18.54261 31087 ft 491 kts 143°
2026-05-05 18:14 42.65937 18.60173 31102 ft 491 kts 143°
2026-05-05 18:14 42.60676 18.66114 31091 ft 492 kts 143°
2026-05-05 18:15 42.55405 18.72053 31090 ft 493 kts 143°
2026-05-05 18:15 42.50120 18.77994 31080 ft 493 kts 143°
2026-05-05 18:16 42.44836 18.83920 31084 ft 493 kts 143°
2026-05-05 18:16 42.39576 18.89809 31087 ft 493 kts 143°
2026-05-05 18:17 42.34278 18.95724 31086 ft 494 kts 143°
2026-05-05 18:17 42.28971 19.01636 31091 ft 494 kts 143°
2026-05-05 18:18 42.23660 19.07534 31091 ft 495 kts 143°
2026-05-05 18:18 42.18333 19.13441 31077 ft 495 kts 143°
2026-05-05 18:19 42.13007 19.19338 31076 ft 495 kts 143°
2026-05-05 18:19 42.07673 19.25226 31082 ft 495 kts 143°
2026-05-05 18:20 42.02376 19.31061 31081 ft 495 kts 143°
2026-05-05 18:20 41.97037 19.36930 31091 ft 496 kts 143°
2026-05-05 18:21 41.91689 19.42794 31093 ft 496 kts 143°
2026-05-05 18:21 41.86329 19.48657 31100 ft 497 kts 143°
2026-05-05 18:22 41.80965 19.54515 31100 ft 497 kts 143°
2026-05-05 18:22 41.75595 19.60366 31105 ft 498 kts 143°
2026-05-05 18:23 41.70209 19.66218 31108 ft 498 kts 143°
2026-05-05 18:23 41.64822 19.72060 31112 ft 499 kts 143°
2026-05-05 18:24 41.59444 19.77882 31111 ft 499 kts 143°
2026-05-05 18:24 41.54031 19.83723 31111 ft 500 kts 143°
2026-05-05 18:25 41.48600 19.89575 31111 ft 502 kts 143°
2026-05-05 18:25 41.43152 19.95430 31115 ft 503 kts 143°
2026-05-05 18:26 41.37700 20.01275 31115 ft 503 kts 143°
2026-05-05 18:26 41.32272 20.07085 31116 ft 504 kts 143°
2026-05-05 18:27 41.26799 20.12931 31126 ft 505 kts 143°
2026-05-05 18:27 41.21306 20.18783 31126 ft 505 kts 143°
2026-05-05 18:28 41.13047 20.27553 31129 ft 507 kts 143°
2026-05-05 18:28 41.07576 20.33359 31115 ft 508 kts 143°
2026-05-05 18:29 41.02051 20.39205 31102 ft 509 kts 143°
2026-05-05 18:29 40.96507 20.45046 31117 ft 509 kts 143°
2026-05-05 18:30 40.90952 20.50888 31126 ft 510 kts 143°
2026-05-05 18:30 40.85396 20.56721 31122 ft 510 kts 143°
2026-05-05 18:31 40.79865 20.62518 31119 ft 510 kts 143°
2026-05-05 18:31 40.74277 20.68358 31116 ft 511 kts 143°
2026-05-05 18:32 40.68728 20.74150 31109 ft 512 kts 143°
2026-05-05 18:32 40.63128 20.79978 31112 ft 513 kts 143°
2026-05-05 18:33 40.57525 20.85798 31109 ft 513 kts 143°
2026-05-05 18:33 40.51903 20.91625 31111 ft 513 kts 143°
2026-05-05 18:34 40.46356 20.97471 31108 ft 514 kts 142°
2026-05-05 18:34 40.40840 21.03508 31100 ft 516 kts 141°
2026-05-05 18:35 40.35310 21.09561 31096 ft 517 kts 141°
2026-05-05 18:35 40.29786 21.15592 31099 ft 516 kts 141°
2026-05-05 18:36 40.24294 21.21570 31095 ft 516 kts 141°
2026-05-05 18:36 40.18764 21.27577 31088 ft 516 kts 141°
2026-05-05 18:37 40.13233 21.33568 31082 ft 516 kts 141°
2026-05-05 18:37 40.07691 21.39554 31080 ft 516 kts 141°
2026-05-05 18:38 40.02174 21.45501 31082 ft 517 kts 141°
2026-05-05 18:38 39.96611 21.51478 31079 ft 517 kts 141°
2026-05-05 18:39 39.91052 21.57465 31073 ft 518 kts 141°
2026-05-05 18:39 39.85519 21.63405 31074 ft 518 kts 141°
2026-05-05 18:40 39.79940 21.69368 31066 ft 519 kts 141°
2026-05-05 18:40 39.74357 21.75336 31061 ft 520 kts 141°
2026-05-05 18:41 39.68761 21.81283 31057 ft 520 kts 141°
2026-05-05 18:41 39.63159 21.87236 31050 ft 520 kts 141°
2026-05-05 18:42 39.57554 21.93177 31043 ft 520 kts 142°
2026-05-05 18:42 39.51979 21.99075 31040 ft 520 kts 141°
2026-05-05 18:43 39.46370 22.04993 31044 ft 520 kts 141°
2026-05-05 18:43 39.41708 22.09908 31043 ft 520 kts 141°
2026-05-05 18:44 39.36074 22.15831 31042 ft 520 kts 141°
2026-05-05 18:44 39.30451 22.21738 31045 ft 521 kts 141°
2026-05-05 18:45 39.24853 22.27600 31050 ft 521 kts 141°
2026-05-05 18:45 39.19212 22.33495 31057 ft 521 kts 141°
2026-05-05 18:46 39.13556 22.39388 31053 ft 522 kts 141°
2026-05-05 18:46 39.07915 22.45259 31052 ft 522 kts 141°
2026-05-05 18:47 39.02249 22.51140 31054 ft 522 kts 141°
2026-05-05 18:47 38.96578 22.57019 31048 ft 523 kts 141°
2026-05-05 18:48 38.90950 22.62841 31050 ft 523 kts 141°
2026-05-05 18:48 38.85278 22.68689 31067 ft 523 kts 142°
2026-05-05 18:49 38.79601 22.74531 31068 ft 523 kts 141°
2026-05-05 18:49 38.73926 22.80364 31061 ft 523 kts 141°
2026-05-05 18:50 38.68233 22.86204 31069 ft 524 kts 141°
2026-05-05 18:50 38.62533 22.92038 31071 ft 524 kts 141°
2026-05-05 18:51 38.56832 22.97854 31066 ft 524 kts 141°
2026-05-05 18:51 38.51168 23.03615 31062 ft 523 kts 142°
2026-05-05 18:52 38.45472 23.09400 31069 ft 523 kts 142°
2026-05-05 18:52 38.39769 23.15188 31074 ft 523 kts 142°
2026-05-05 18:53 38.34053 23.20979 31088 ft 523 kts 142°
2026-05-05 18:53 38.28343 23.26746 31086 ft 523 kts 142°
2026-05-05 18:54 38.22628 23.32507 31075 ft 523 kts 142°
2026-05-05 18:54 38.16952 23.38221 31046 ft 523 kts 142°
2026-05-05 18:55 38.11242 23.43952 31049 ft 523 kts 142°
2026-05-05 18:55 38.05524 23.49679 31055 ft 524 kts 142°
2026-05-05 18:56 37.99794 23.55408 31054 ft 524 kts 142°
2026-05-05 18:56 37.94052 23.61141 31058 ft 525 kts 142°
2026-05-05 18:57 37.88303 23.66849 31064 ft 525 kts 142°
2026-05-05 18:57 37.82603 23.72524 31076 ft 525 kts 142°
2026-05-05 18:58 37.76844 23.78246 31080 ft 525 kts 142°
2026-05-05 18:58 37.71088 23.83942 31077 ft 525 kts 142°
2026-05-05 18:59 37.65357 23.89606 31075 ft 526 kts 142°
2026-05-05 18:59 37.59578 23.95303 31070 ft 526 kts 142°
2026-05-05 19:00 37.53806 24.00982 31070 ft 527 kts 142°
2026-05-05 19:00 37.48020 24.06662 31073 ft 526 kts 142°
2026-05-05 19:01 37.42272 24.12291 31069 ft 527 kts 142°
2026-05-05 19:01 37.36479 24.17960 31069 ft 527 kts 142°
2026-05-05 19:02 37.30690 24.23604 31067 ft 526 kts 142°
2026-05-05 19:02 37.24902 24.29244 31067 ft 526 kts 142°
2026-05-05 19:03 37.19112 24.34871 31069 ft 526 kts 142°
2026-05-05 19:03 37.13366 24.40450 31068 ft 526 kts 142°
2026-05-05 19:04 37.07572 24.46060 31070 ft 526 kts 142°
2026-05-05 19:04 37.01771 24.51659 31071 ft 526 kts 142°
2026-05-05 19:05 36.95968 24.57248 31075 ft 526 kts 142°
2026-05-05 19:05 36.90173 24.62829 31071 ft 526 kts 142°
2026-05-05 19:06 36.84373 24.68397 31074 ft 526 kts 142°
2026-05-05 19:06 36.78574 24.73966 31076 ft 526 kts 142°
2026-05-05 19:07 36.72758 24.79528 31080 ft 526 kts 142°
2026-05-05 19:07 36.66953 24.85070 31079 ft 526 kts 142°
2026-05-05 19:08 36.61182 24.90575 31077 ft 526 kts 142°
2026-05-05 19:08 36.55351 24.96118 31077 ft 526 kts 142°
2026-05-05 19:09 36.49540 25.01640 31079 ft 526 kts 142°
2026-05-05 19:09 36.43718 25.07157 31078 ft 525 kts 142°
2026-05-05 19:10 36.37926 25.12628 31075 ft 525 kts 142°
2026-05-05 19:10 36.32107 25.18117 31079 ft 525 kts 142°
2026-05-05 19:11 36.26299 25.23590 31080 ft 524 kts 142°
2026-05-05 19:11 36.20483 25.29058 31082 ft 524 kts 142°
2026-05-05 19:12 36.14670 25.34512 31082 ft 524 kts 142°
2026-05-05 19:12 36.08899 25.39920 31086 ft 523 kts 142°
2026-05-05 19:13 36.03091 25.45348 31090 ft 523 kts 142°
2026-05-05 19:13 35.97281 25.50772 31088 ft 522 kts 142°
2026-05-05 19:14 35.91508 25.56148 31087 ft 522 kts 142°
2026-05-05 19:14 35.85709 25.61528 31084 ft 521 kts 142°
2026-05-05 19:15 35.79913 25.66903 31085 ft 521 kts 143°
2026-05-05 19:15 35.74117 25.72277 31085 ft 521 kts 143°
2026-05-05 19:16 35.68326 25.77635 31087 ft 520 kts 143°
2026-05-05 19:16 35.62530 25.82988 31085 ft 520 kts 143°
2026-05-05 19:17 35.56761 25.88293 31084 ft 520 kts 143°
2026-05-05 19:17 35.50965 25.93625 31087 ft 520 kts 143°
2026-05-05 19:18 35.45170 25.98950 31090 ft 520 kts 143°
2026-05-05 19:18 35.39363 26.04267 31088 ft 520 kts 143°
2026-05-05 19:19 35.33557 26.09574 31086 ft 520 kts 143°
2026-05-05 19:19 35.27746 26.14875 31085 ft 521 kts 143°
2026-05-05 19:20 35.21935 26.20173 31096 ft 521 kts 143°
2026-05-05 19:20 35.16163 26.25423 31093 ft 521 kts 143°
2026-05-05 19:21 35.10334 26.30711 31088 ft 521 kts 143°
2026-05-05 19:21 35.04516 26.35985 31093 ft 521 kts 144°
2026-05-05 19:22 34.98690 26.41256 31084 ft 521 kts 144°
2026-05-05 19:22 34.92865 26.46512 31089 ft 520 kts 144°
2026-05-05 19:23 34.87082 26.51726 31088 ft 519 kts 144°
2026-05-05 19:23 34.81274 26.56949 31095 ft 519 kts 144°
2026-05-05 19:24 34.75455 26.62173 31093 ft 519 kts 144°
2026-05-05 19:24 34.69639 26.67389 31097 ft 519 kts 144°
2026-05-05 19:25 34.63835 26.72578 31096 ft 519 kts 144°
2026-05-05 19:25 34.58016 26.77773 31097 ft 519 kts 144°
2026-05-05 19:26 34.52204 26.82956 31099 ft 518 kts 144°
2026-05-05 19:26 34.46389 26.88129 31100 ft 518 kts 144°
2026-05-05 19:27 34.41558 26.92420 31100 ft 518 kts 144°
2026-05-05 19:27 34.35745 26.97578 31098 ft 518 kts 144°
2026-05-05 19:28 34.28981 27.03566 31099 ft 518 kts 145°
2026-05-05 19:28 34.24143 27.07841 31099 ft 518 kts 145°
2026-05-05 19:29 34.18327 27.12974 31097 ft 518 kts 145°
2026-05-05 19:29 34.12510 27.18095 31100 ft 517 kts 145°